This demonstration page uses our WeatherBlox Daily Observations layout. Learn more.

Left ArrowRight Arrow

Hourly Observations for October 23, 2021

Temp ( °F °C ) Dew Point ( °F °C ) Humidity (%) Winds ( mph kmh ) Pressure ( in mb ) Visibility ( mi km ) Precip ( " mm )
12:15 am 00:15 Cloudy 48 9 48 9 100 100 WNW 5 7 30.01 1016 10 16 N/A
12:35 am 00:35 Cloudy 48 9 48 9 100 100 WNW 6 9 30.01 1016 10 16 N/A
12:55 am 00:55 Cloudy 48 9 48 9 100 100 W 7 11 30.01 1016 10 16 N/A
1:15 am 01:15 Cloudy 48 9 48 9 100 100 WNW 5 7 30.02 1017 10 16 N/A
1:35 am 01:35 Cloudy 48 9 48 9 100 100 W 5 7 30.02 1017 10 16 N/A
1:55 am 01:55 Cloudy 48 9 48 9 100 100 W 6 9 30.02 1017 10 16 N/A
2:15 am 02:15 Cloudy 48 9 48 9 100 100 WSW 5 7 30.02 1017 10 16 N/A
2:35 am 02:35 Cloudy 48 9 48 9 100 100 W 8 13 30.03 1017 10 16 N/A
2:55 am 02:55 Cloudy 48 9 48 9 100 100 W 6 9 30.03 1017 10 16 N/A
3:15 am 03:15 Cloudy 48 9 48 9 100 100 W 5 7 30.03 1017 10 16 N/A
3:35 am 03:35 Cloudy 48 9 48 9 100 100 W 5 7 30.04 1017 10 16 N/A
3:55 am 03:55 Cloudy 48 9 48 9 100 100 WSW 6 9 30.03 1017 7 11 N/A
4:15 am 04:15 Cloudy 48 9 48 9 100 100 SW 5 7 30.03 1017 7 11 N/A
4:35 am 04:35 Cloudy 48 9 48 9 100 100 WSW 5 7 30.03 1017 7 11 N/A
4:55 am 04:55 Cloudy 48 9 48 9 100 100 WSW 6 9 30.03 1017 7 11 N/A
5:15 am 05:15 Cloudy 48 9 48 9 100 100 W 5 7 30.03 1017 7 11 N/A
5:35 am 05:35 Cloudy 48 9 48 9 100 100 W 7 11 30.03 1017 7 11 N/A
5:55 am 05:55 Cloudy 46 8 46 8 100 100 W 3 6 30.04 1017 7 11 N/A
6:15 am 06:15 Mostly Cloudy 46 8 46 8 100 100 W 5 7 30.05 1018 7 11 N/A
6:35 am 06:35 Clear 43 6 43 6 100 100 WSW 3 6 30.05 1018 4 6 N/A
6:55 am 06:55 Partly Cloudy 45 7 45 7 100 100 N N/A 30.05 1018 1 2 N/A
7:15 am 07:15 Mostly Cloudy 45 7 45 7 100 100 N N/A 30.06 1018 3 5 N/A
7:35 am 07:35 Cloudy 45 7 45 7 100 100 SW 3 6 30.06 1018 5 8 N/A
7:55 am 07:55 Cloudy 45 7 45 7 100 100 S 3 6 30.06 1018 5 8 N/A
8:15 am 08:15 Mostly Cloudy 45 7 45 7 100 100 SSW 5 7 30.06 1018 4 6 N/A
8:35 am 08:35 Mostly Cloudy 45 7 45 7 100 100 SSW 3 6 30.07 1018 4 6 N/A
8:55 am 08:55 Partly Cloudy 46 8 46 8 100 100 SW 3 6 30.08 1019 3 4 N/A
9:15 am 09:15 Partly Cloudy 46 8 46 8 100 100 SW 7 11 30.08 1019 3 5 N/A
9:35 am 09:35 Mostly Cloudy 46 8 46 8 100 100 SW 7 11 30.09 1019 4 6 N/A
9:55 am 09:55 Mostly Cloudy 48 9 48 9 100 100 SW 3 6 30.08 1019 5 8 N/A
10:15 am 10:15 Partly Cloudy 48 9 48 9 100 100 SW 5 7 30.08 1019 7 11 N/A
10:35 am 10:35 Partly Cloudy 50 10 48 9 94 94 SW 5 7 30.09 1019 10 16 N/A
10:55 am 10:55 Sunny 52 11 46 8 82 82 SSW 3 6 30.08 1019 10 16 N/A
11:15 am 11:15 Sunny 52 11 45 7 77 77 SW 5 7 30.08 1019 10 16 N/A
11:35 am 11:35 Partly Cloudy 54 12 45 7 72 72 SSW 3 6 30.07 1018 10 16 N/A
11:55 am 11:55 Mostly Cloudy 54 12 41 5 63 63 W 5 7 30.06 1018 10 16 N/A
12:15 pm 12:15 Partly Cloudy 55 13 43 6 63 63 SW 5 7 30.07 1018 10 16 N/A
12:35 pm 12:35 Partly Cloudy 57 14 43 6 59 59 SW 8 13 30.07 1018 10 16 N/A
12:55 pm 12:55 Mostly Cloudy 55 13 41 5 59 59 SW 5 7 30.07 1018 10 16 N/A
1:15 pm 13:15 Cloudy 55 13 41 5 59 59 WSW 5 7 30.06 1018 10 16 N/A
1:35 pm 13:35 Cloudy 55 13 41 5 59 59 WSW 5 7 30.05 1018 10 16 N/A
1:55 pm 13:55 Cloudy 55 13 41 5 59 59 SW 6 9 30.04 1017 10 16 N/A
2:15 pm 14:15 Cloudy 54 12 39 4 58 58 WSW 5 7 30.04 1017 10 16 N/A
2:35 pm 14:35 Cloudy 54 12 39 4 58 58 WSW 8 13 30.04 1017 10 16 N/A
2:55 pm 14:55 Cloudy 54 12 41 5 63 63 WSW 7 11 30.03 1017 10 16 N/A
3:15 pm 15:15 Cloudy 54 12 41 5 63 63 WSW 6 9 30.02 1017 10 16 N/A
3:35 pm 15:35 Cloudy 54 12 43 6 67 67 SW 5 7 30.02 1017 10 16 N/A
3:55 pm 15:55 Cloudy 54 12 43 6 67 67 WSW 6 9 30.02 1017 10 16 N/A
4:15 pm 16:15 Cloudy 54 12 45 7 72 72 WSW 3 6 30.02 1017 10 16 N/A
4:35 pm 16:35 Cloudy 52 11 45 7 77 77 WSW 3 6 30.04 1017 10 16 N/A
4:55 pm 16:55 Cloudy 52 11 45 7 77 77 N N/A 30.04 1017 10 16 N/A
5:15 pm 17:15 Cloudy 52 11 46 8 82 82 N N/A 30.03 1017 10 16 N/A
5:35 pm 17:35 Cloudy 52 11 46 8 82 82 N N/A 30.03 1017 10 16 N/A
5:55 pm 17:55 Cloudy 52 11 46 8 82 82 N N/A 30.03 1017 10 16 N/A
6:15 pm 18:15 Cloudy 52 11 48 9 88 88 N N/A 30.03 1017 10 16 N/A
6:35 pm 18:35 Cloudy 52 11 48 9 88 88 NNE 3 6 30.03 1017 10 16 N/A
6:55 pm 18:55 Cloudy 52 11 48 9 88 88 N N/A 30.03 1017 10 16 N/A
7:15 pm 19:15 Cloudy 52 11 45 7 77 77 N 3 6 30.03 1017 10 16 N/A
7:35 pm 19:35 Cloudy 50 10 46 8 88 88 NE 5 7 30.03 1017 10 16 N/A
7:55 pm 19:55 Cloudy 50 10 48 9 94 94 N 6 9 30.02 1017 10 16 N/A
8:15 pm 20:15 Cloudy 50 10 46 8 88 88 NNE 7 11 30.02 1017 10 16 N/A
8:35 pm 20:35 Cloudy 50 10 46 8 88 88 NE 3 6 30.03 1017 10 16 N/A
8:55 pm 20:55 Cloudy 50 10 48 9 94 94 E 3 6 30.03 1017 10 16 N/A
9:15 pm 21:15 Cloudy 50 10 48 9 94 94 E 3 6 30.03 1017 10 16 N/A
9:35 pm 21:35 Cloudy 50 10 48 9 94 94 N N/A 30.03 1017 10 16 N/A
9:55 pm 21:55 Cloudy 50 10 48 9 94 94 SE 5 7 30.03 1017 10 16 N/A
10:15 pm 22:15 Cloudy 50 10 48 9 94 94 SE 3 6 30.03 1017 10 16 N/A
10:35 pm 22:35 Cloudy 50 10 46 8 88 88 N N/A 30.03 1017 10 16 N/A
10:55 pm 22:55 Cloudy 50 10 48 9 94 94 N N/A 30.03 1017 10 16 N/A
11:15 pm 23:15 Cloudy 50 10 48 9 94 94 ENE 3 6 30.04 1017 10 16 N/A
11:35 pm 23:35 Cloudy 50 10 48 9 94 94 N N/A 30.03 1017 10 16 N/A
11:55 pm 23:55 Cloudy 50 10 48 9 94 94 E 5 7 30.03 1017 10 16 N/A

Powered by AerisWeather